Location: La Coruña
(43.3623°N, 8.4115°W)
Time: 10:20:13
(UTC+01:00)

STARLINK-1144 - Pass Details

Date: 24 January 2020
Orbit: 531 x 533 km, 53.0° (Epoch: 18 February)

Event Time Altitude Azimuth Distance (km) Brightness Sun altitude
Rises 19:42:44 0° 295° (WNW) 2,659 8.0 -12.5°
Reaches altitude 10° 19:45:25 10° 312° (NW) 1,767 6.7 -13.0°
Maximum altitude 19:48:26 20° 1° (N) 1,247 5.3 -13.5°
Enters shadow 19:50:10 16° 35° (NE) 1,439 5.3 -13.8°
